Overview Statistics Trail Chart Weather Telemetry Raw packets
 

This is the latest recevied weather packets stored in our database for station/object DL5DI-H. If no packets are shown the sender has not sent any weather packets the latest 10 day(s).

<< 17 18 19 20 21 22 23 >>
Time Temp. Humidity Pressure Rain* Wind** Luminosity Snow
1788435001 22.78° C 60% 1019.9 hPa 0 mm - - -
1788434400 22.78° C 60% 1019.9 hPa 0 mm - - -
1788433800 22.22° C 60% 1020 hPa 0 mm - - -
1788433200 22.22° C 61% 1020.1 hPa 0 mm - - -
1788432602 22.22° C 61% 1020.1 hPa 0 mm - - -
1788432002 22.22° C 62% 1020.2 hPa 0 mm - - -
1788431401 22.22° C 63% 1020.1 hPa 0 mm - - -
1788430800 22.22° C 63% 1020.1 hPa 0 mm - - -
1788430200 22.22° C 59% 1020 hPa 0 mm - - -
1788429602 22.22° C 60% 1020 hPa 0 mm - - -
1788429001 21.67° C 60% 1020 hPa 0 mm - - -
1788428401 21.67° C 61% 1020 hPa 0 mm - - -
1788427802 21.11° C 63% 1020.2 hPa 0 mm - - -
1788427204 21.11° C 63% 1020.2 hPa 0 mm - - -
1788426602 20.56° C 64% 1020.3 hPa 0 mm - - -
1788426002 20° C 64% 1020.2 hPa 0 mm - - -
1788425402 19.44° C 65% 1020.2 hPa 0 mm - - -
1788424801 19.44° C 66% 1020.2 hPa 0 mm - - -
1788424202 18.89° C 68% 1020.4 hPa 0 mm - - -
1788423600 18.89° C 69% 1020.4 hPa 0 mm - - -
1788423002 18.33° C 69% 1020.3 hPa 0 mm - - -
1788422402 18.33° C 70% 1020.6 hPa 0 mm - - -
1788421801 17.78° C 71% 1020.4 hPa 0 mm - - -
1788421202 16.67° C 74% 1020.8 hPa 0 mm - - -
1788420601 16.67° C 74% 1020.8 hPa 0 mm - - -

* Rain latest hour (hover to see other rain measurements)
** Current wind speed in m/s (hover to see current wind gust speed)